Location: Chuathbaluk
(61.5726°N, 159.2454°W)
Time: 14:13:56
(UTC+00:00)

ITAMSAT 1 - Pass Details

Date: 18 January 2021
Orbit: 784 x 796 km, 98.9° (Epoch: 01 March)

Event Time Altitude Azimuth Distance (km) Brightness Sun altitude
Rises 04:16:16 0° 174° (S) 3,277 11.0 -14.3°
Reaches altitude 10° 04:18:38 10° 179° (S) 2,350 10.3 -14.6°
Maximum altitude 04:23:43 55° 257° (WSW) 943 8.4 -15.2°
Drops below altitude 10° 04:28:50 10° 336° (NNW) 2,360 10.2 -15.8°
Sets 04:31:13 0° 341° (NNW) 3,292 11.0 -16.1°
